RH
42 44 47 53 53 54 53 54 54 45 41 37 36 36 37 41 46 52 52 49 50 51 50 52 53 56 61 64 66 65 66 64 64 64 65 72 72 70 68 64 62 61 65 66 63 63 64 65 65 64 62 59 60 59 58 57 56 55 55 54 53 52 51 52 51 49 49 50 49 47 46 46 45 46 45 46 47 45 44 44 44 43 42 42 41 40 38 38 39 40 40 40 38 37 38 40 44
42 47 50 53 53 53 51 50 52 39 31 32 34 33 35 38 40 45 44 43 47 46 46 47 48 52 56 59 57 55 61 62 63 65 65 70 72 69 62 62 63 58 66 70 63 63 66 64 62 61 58 55 55 55 55 54 53 52 52 51 50 49 48 49 49 49 49 49 49 47 47 46 45 45 46 47 47 45 44 43 42 42 41 40 40 40 40 40 40 41 40 39 38 37 41 45 48
44 51 53 51 51 53 54 53 48 37 31 30 32 33 34 35 35 36 36 38 45 46 47 46 50 54 51 50 47 44 50 55 60 64 66 67 67 66 61 60 59 58 70 73 65 65 66 62 57 56 54 52 52 52 52 52 51 50 50 49 47 47 47 47 48 48 49 49 49 49 48 48 47 47 47 48 47 45 44 42 41 40 40 41 41 41 40 41 40 40 39 38 38 39 44 47 49
46 52 53 49 50 50 54 53 43 35 33 33 34 34 33 33 33 32 32 34 39 42 43 42 46 49 43 43 44 40 42 50 58 62 66 65 60 62 63 60 55 58 69 68 63 63 62 59 54 51 50 49 49 49 49 48 47 47 47 47 46 46 46 46 46 47 48 48 49 50 50 50 49 49 49 48 48 47 45 43 43 43 44 45 44 42 40 40 40 40 39 38 39 41 44 46 49
46 51 52 50 51 46 48 45 37 36 35 34 35 36 35 34 33 33 32 30 30 32 36 38 40 41 39 39 38 39 44 51 61 63 61 62 56 55 61 65 59 58 63 62 58 55 55 55 51 49 48 47 45 45 45 44 44 45 45 45 45 45 45 45 46 47 48 49 49 50 50 51 50 49 50 49 49 48 47 46 45 46 46 47 46 44 42 41 41 42 42 41 41 41 44 47 48
47 47 45 48 52 48 47 40 34 36 35 35 36 38 36 32 32 33 32 29 27 27 31 35 38 37 36 37 37 44 49 51 58 61 58 58 57 56 59 62 62 60 60 57 54 50 51 52 50 49 47 46 44 42 43 43 43 44 44 44 44 45 45 45 47 48 49 49 49 50 51 51 51 50 50 49 49 49 49 48 48 47 46 47 46 45 45 44 43 44 45 45 43 43 44 46 48
48 46 41 45 49 47 43 36 34 34 34 35 34 35 30 27 28 27 28 27 23 23 26 30 33 33 34 38 40 48 50 47 49 55 57 55 57 60 58 55 54 57 58 52 47 47 47 49 49 48 48 47 45 43 43 44 43 44 44 43 43 44 46 46 47 48 47 48 49 50 51 51 52 52 51 51 50 51 51 50 49 48 47 46 46 46 47 47 47 46 46 46 46 45 44 46 49
47 48 43 43 45 43 38 32 33 34 35 36 35 35 34 31 29 28 28 29 28 25 26 29 30 31 36 38 39 48 48 42 41 47 54 54 56 59 61 57 50 50 54 50 45 45 46 48 48 48 48 46 44 42 43 43 43 43 44 42 42 43 45 46 46 46 46 48 50 50 51 51 52 52 52 51 52 52 52 52 52 51 50 49 49 48 49 49 49 48 47 46 47 47 46 47 49
47 50 48 46 45 42 36 31 32 34 36 37 37 36 36 33 30 30 29 29 28 25 27 31 30 30 36 36 37 47 42 36 40 43 48 54 55 57 60 58 51 49 50 49 47 46 47 47 46 46 45 43 44 43 42 43 43 43 43 43 43 45 45 46 46 46 47 48 49 50 50 50 51 51 52 52 53 54 55 55 55 54 54 53 52 51 50 49 49 49 47 47 47 48 47 47 48
47 48 51 49 47 44 39 36 35 35 35 34 32 31 32 31 31 33 31 30 29 29 30 30 29 30 33 35 39 41 35 34 37 38 44 51 54 56 58 55 50 49 48 45 45 47 47 46 45 45 44 43 43 43 43 44 45 45 45 45 44 44 45 45 45 46 47 47 49 48 48 49 49 49 50 51 52 53 54 55 55 55 54 54 53 52 51 49 49 49 48 48 48 48 48 48 47
50 45 46 46 45 45 43 41 37 35 35 33 32 31 32 31 28 28 28 29 28 29 32 30 31 31 32 35 38 32 30 33 33 34 40 47 51 53 56 54 50 46 44 41 41 44 45 44 44 45 43 43 43 43 44 44 45 46 45 44 43 42 42 43 44 46 47 47 48 47 48 48 48 48 49 50 51 51 52 53 53 53 54 53 53 53 53 52 52 51 51 50 50 50 49 49 48
50 43 42 45 45 47 46 43 40 38 36 35 34 33 31 30 25 22 24 26 28 31 34 33 30 28 26 28 29 25 27 30 31 35 38 46 51 50 53 54 53 48 43 41 39 39 40 40 40 41 40 39 39 39 42 43 43 44 44 43 42 42 41 42 44 46 47 48 48 48 49 49 49 49 49 50 51 52 53 53 53 54 54 54 54 53 54 54 55 55 55 54 53 52 50 49 48
45 42 43 48 47 45 46 45 44 43 40 37 38 37 33 32 28 24 26 28 31 33 33 30 25 23 23 23 23 23 25 25 29 33 36 45 51 48 50 53 52 50 45 43 41 39 39 40 39 37 36 34 34 35 38 40 40 42 43 42 43 42 41 42 44 48 49 49 50 49 50 50 50 50 50 51 52 53 54 54 55 56 55 55 54 53 53 54 56 57 58 58 57 55 54 52 50
43 43 45 51 49 45 45 44 46 45 40 40 42 41 37 34 30 30 35 36 32 31 32 29 24 23 24 24 22 23 24 24 27 30 34 43 47 46 47 51 50 46 44 43 42 44 43 39 37 34 34 33 33 35 37 37 39 40 40 41 43 42 42 43 45 48 50 49 49 50 50 49 49 50 50 51 53 54 56 56 56 56 56 56 55 55 54 53 54 56 57 59 61 60 57 55 54
43 43 41 44 44 43 43 43 46 45 40 41 42 42 41 37 31 33 37 34 30 34 35 31 29 25 23 26 24 22 23 25 27 30 38 43 43 45 46 49 47 42 44 44 41 46 47 38 35 34 35 36 35 37 39 39 39 39 39 39 41 42 43 44 45 46 47 49 48 48 48 48 49 49 51 53 55 57 58 58 57 57 56 56 56 56 55 53 51 52 54 57 60 61 59 58 59
40 40 36 34 36 40 41 41 45 44 40 39 38 42 44 40 35 31 30 27 31 40 38 34 39 32 23 28 26 22 23 26 32 37 44 44 38 41 46 46 46 45 47 46 40 43 47 41 36 38 42 43 42 42 44 45 42 40 43 42 40 42 42 42 44 44 45 47 47 48 48 49 51 54 58 60 60 59 61 60 59 60 58 58 57 57 55 54 53 53 53 55 57 59 60 60 60
36 36 31 29 31 35 37 41 45 43 39 37 39 42 41 37 34 30 30 32 38 43 40 37 40 35 28 29 25 24 27 29 34 41 47 48 44 44 46 47 50 51 48 48 46 44 48 43 36 38 41 43 44 45 48 48 44 42 47 48 43 41 40 41 44 46 48 48 48 49 50 51 54 58 62 65 65 63 65 62 59 60 59 59 59 59 58 57 57 56 53 53 55 58 61 63 62
37 37 29 25 27 30 34 36 40 40 37 38 41 41 39 35 31 30 34 39 42 43 42 41 39 38 33 29 24 25 31 32 32 41 49 48 47 47 45 48 53 52 49 51 52 51 53 49 41 39 36 35 40 47 51 48 43 46 48 45 42 40 41 44 47 49 51 51 51 51 52 52 54 56 57 61 64 64 63 60 59 61 61 60 60 61 63 62 58 56 54 54 58 59 61 64 66
33 34 27 23 26 30 32 32 36 39 37 39 40 41 42 38 34 36 39 40 43 42 44 48 42 37 32 25 25 27 30 35 33 37 47 45 43 44 43 47 51 51 50 50 52 52 53 52 50 50 44 41 49 56 56 52 46 50 52 46 42 43 45 48 50 51 54 55 55 54 53 53 53 53 53 57 63 65 62 61 64 64 64 65 65 65 66 64 60 57 58 61 64 62 58 59 64
27 27 24 23 25 29 33 33 36 38 37 39 39 41 43 40 41 43 40 40 44 45 46 46 38 33 30 24 25 26 28 34 35 37 44 44 42 43 45 47 49 51 52 50 51 52 51 50 52 56 52 50 57 60 59 57 49 47 50 48 47 49 51 51 51 54 56 56 56 56 56 55 53 54 56 59 62 64 61 62 66 67 69 71 71 70 69 67 64 63 64 67 67 64 58 58 63
25 23 22 23 26 31 35 35 36 37 37 40 38 41 43 40 44 45 40 42 44 46 45 40 32 29 27 24 23 23 27 33 38 40 41 42 43 44 45 47 50 51 51 50 52 55 55 54 53 55 54 51 54 54 54 56 50 45 46 47 48 50 53 53 50 52 55 55 56 57 58 58 54 54 55 56 58 64 66 61 62 68 71 73 74 72 70 70 68 69 70 71 71 66 61 57 61
24 24 24 25 29 34 37 36 37 38 38 38 37 41 41 39 46 46 43 47 43 43 46 38 30 27 23 23 23 22 25 32 37 38 38 40 41 42 42 44 50 51 49 49 51 55 57 57 56 56 56 54 53 53 52 51 49 48 49 48 47 47 50 51 49 54 58 55 55 56 59 60 55 53 54 56 57 63 64 55 59 69 69 69 73 73 72 71 71 72 71 71 70 65 61 56 56
24 24 25 28 31 34 36 33 32 35 36 36 37 40 39 38 45 46 49 52 47 45 48 40 28 26 25 23 22 21 22 26 30 32 34 39 41 41 41 45 50 51 49 50 50 52 52 52 51 52 52 51 51 54 55 52 48 48 51 49 45 48 50 50 49 56 59 54 53 55 57 58 53 52 54 55 56 58 57 55 64 70 66 64 67 70 71 71 70 68 66 66 67 65 63 60 56
25 23 25 30 32 32 32 30 29 32 34 33 35 38 38 39 42 46 51 52 49 47 48 44 30 26 26 23 22 22 23 24 26 29 32 37 41 42 42 45 48 47 48 51 51 51 52 51 46 46 47 47 47 52 56 53 50 52 55 51 47 52 57 55 49 50 52 49 50 51 51 51 49 51 55 57 62 65 64 65 70 68 63 62 62 63 64 65 65 61 60 61 63 66 68 66 65
27 26 27 29 32 30 28 29 28 28 30 32 33 31 29 32 37 42 45 47 49 45 43 42 35 34 30 23 23 23 23 24 26 29 30 33 37 40 41 43 45 44 48 50 49 51 56 56 52 48 47 48 46 48 52 51 50 50 53 55 53 53 58 60 51 45 44 44 46 47 46 45 46 50 55 58 63 67 67 69 71 68 65 62 58 61 63 64 63 58 58 60 61 63 66 69 70
27 25 25 28 31 31 30 28 24 23 26 27 24 23 22 26 31 36 38 41 46 41 39 39 36 39 33 24 25 25 25 25 27 29 31 33 34 37 39 39 42 44 47 49 48 50 54 55 54 52 49 49 46 46 50 50 49 45 44 51 54 54 60 64 56 49 46 44 48 49 45 44 45 48 51 55 59 60 61 64 66 64 64 63 60 62 65 66 65 60 58 61 61 60 62 65 67
25 24 27 29 30 33 34 28 22 24 26 22 19 19 21 25 29 33 33 34 41 43 44 44 39 38 32 26 29 29 28 28 30 32 32 34 35 37 39 37 37 41 43 46 45 46 48 48 49 51 48 45 44 46 49 50 51 49 45 47 49 49 53 56 52 48 46 45 49 49 44 42 42 43 46 51 54 55 56 58 61 59 59 60 58 58 58 60 64 64 62 63 61 58 58 61 63
27 26 27 29 31 36 36 28 25 28 28 25 24 23 22 24 25 29 31 29 35 42 45 42 39 40 36 32 33 32 33 31 32 34 33 36 39 41 42 39 38 38 37 40 41 41 41 40 43 47 46 43 43 44 46 49 52 51 47 44 46 46 44 43 41 40 40 40 42 42 39 38 37 38 41 45 49 52 54 55 55 56 55 54 52 51 49 49 56 61 62 63 61 59 58 59 60
28 26 27 29 34 38 35 30 30 31 29 29 32 33 29 24 23 26 29 31 32 35 39 38 39 42 39 35 34 35 38 36 34 35 31 34 41 41 41 41 39 37 35 37 38 37 37 37 38 40 39 40 40 40 44 48 50 49 45 41 41 44 42 39 39 39 40 39 39 38 35 34 35 37 39 41 45 48 51 52 51 51 51 50 48 47 45 44 46 50 54 58 58 57 58 58 58
28 27 29 30 34 35 34 33 32 31 30 32 37 43 39 27 25 26 27 31 32 32 34 33 36 38 35 33 32 33 37 37 36 35 30 31 36 35 35 36 36 36 35 35 34 34 35 36 37 40 39 39 41 39 40 45 49 49 48 43 38 39 42 41 40 41 43 44 42 40 37 38 41 42 39 37 38 43 47 49 51 51 50 48 45 44 43 43 42 44 47 52 54 55 57 57 56
29 33 32 30 34 34 35 35 32 33 32 32 38 46 44 31 27 29 27 29 32 34 33 31 35 35 31 29 28 33 36 36 35 33 29 29 29 29 30 32 33 33 34 33 31 31 34 38 39 41 41 42 43 40 37 42 47 46 48 46 41 41 43 42 42 43 44 46 43 39 39 42 45 44 38 34 34 39 43 46 52 54 56 57 51 47 48 46 43 43 44 44 47 50 52 51 49
32 39 36 35 38 34 33 33 31 34 34 33 37 44 47 37 30 30 28 29 31 34 36 36 39 37 35 31 29 36 35 33 34 31 31 30 28 29 30 32 32 31 34 35 33 31 33 41 42 37 37 40 43 41 38 41 44 43 44 44 43 43 43 44 45 45 46 47 43 38 40 40 42 41 38 38 39 41 43 46 52 56 60 66 62 55 52 47 42 41 42 41 39 38 37 36 35
35 40 39 39 40 37 37 33 29 34 33 31 34 40 47 41 32 30 27 29 31 34 37 38 40 42 39 34 37 42 35 32 35 33 34 32 30 33 33 33 34 35 37 37 37 35 35 43 43 35 34 37 40 42 38 38 40 40 40 41 43 45 47 50 49 48 47 46 45 42 44 42 40 39 38 42 44 43 43 44 48 54 58 62 59 50 45 41 39 38 38 37 33 30 27 25 24
37 39 41 41 40 40 41 36 30 31 30 30 32 36 43 38 31 29 27 28 30 34 37 36 38 43 41 36 40 45 38 35 35 32 32 32 31 35 36 36 39 41 40 37 36 37 37 40 39 35 37 41 43 41 34 32 33 33 36 38 41 44 47 48 49 53 52 47 47 47 46 43 39 38 38 38 38 36 35 35 38 43 45 45 43 39 36 33 31 30 31 31 28 26 24 23 20
34 37 38 39 40 39 40 37 32 31 28 29 33 37 42 37 31 30 28 29 29 31 35 36 35 37 38 39 41 42 38 36 38 35 32 33 32 33 37 39 41 41 38 37 36 36 37 37 40 40 40 44 44 36 29 30 32 32 37 41 43 43 42 43 45 51 55 50 48 47 46 42 37 35 34 32 31 29 27 28 31 33 33 33 32 30 26 24 23 24 25 26 25 23 22 21 21
32 35 34 34 37 37 36 36 33 32 28 29 33 37 40 36 31 30 30 32 30 29 34 37 36 33 32 35 38 36 33 34 39 39 34 33 34 33 37 40 41 40 38 38 35 35 37 39 45 41 34 38 36 32 32 36 45 46 44 47 49 47 45 46 48 48 48 47 43 41 42 40 35 32 29 30 30 29 28 30 34 34 31 28 25 24 23 23 24 24 23 23 22 21 20 21 21
28 29 30 30 33 33 33 34 34 31 30 32 36 38 40 37 32 29 30 36 34 30 34 37 38 34 29 28 28 26 26 28 32 35 32 33 36 35 37 41 43 42 38 34 30 32 34 35 41 37 33 37 35 38 42 42 52 58 53 51 48 46 45 45 46 44 43 42 38 37 36 34 31 29 30 32 31 29 30 31 30 29 26 22 21 24 25 24 24 25 23 21 19 20 21 20 21
24 23 23 26 29 29 30 33 34 34 32 35 39 40 42 40 36 31 31 36 36 33 35 38 38 35 32 33 31 26 25 27 29 31 32 35 38 37 39 40 40 40 35 30 30 34 33 28 32 34 35 42 46 52 50 41 46 51 49 47 40 38 39 38 39 39 38 38 37 36 34 30 26 24 26 28 26 24 26 27 24 20 19 19 22 26 27 25 25 24 23 22 22 21 20 20 24
22 19 18 22 25 26 29 31 35 36 36 38 41 44 45 43 40 37 35 37 36 35 35 36 39 39 38 39 38 34 31 31 30 30 32 37 37 38 43 41 37 38 34 29 31 33 30 24 28 32 34 42 50 49 41 33 33 33 33 35 31 28 29 30 32 33 32 32 33 33 29 26 22 21 21 20 20 20 22 25 23 18 16 19 25 27 29 30 28 24 22 23 25 24 22 24 31
22 19 17 20 23 23 27 30 33 37 38 40 41 43 47 47 45 42 39 39 38 36 35 36 39 39 38 39 40 38 37 36 33 33 36 36 35 35 39 37 34 35 29 25 28 28 26 24 26 32 31 33 35 31 28 29 27 26 27 29 25 22 21 21 22 24 23 22 23 23 22 23 23 22 19 18 20 20 20 21 20 17 17 22 30 32 32 32 29 27 29 30 31 34 34 30 34
22 21 18 19 21 23 26 30 34 37 37 39 40 43 48 48 48 48 45 43 42 40 38 37 37 36 37 39 42 41 41 38 32 33 36 34 35 36 35 33 33 33 26 23 26 27 27 27 28 31 30 28 28 27 28 27 25 25 25 25 21 20 21 19 18 19 18 17 18 18 19 21 22 20 18 17 19 17 16 16 16 18 20 24 32 34 32 32 29 28 34 37 35 36 38 33 33
21 20 18 18 18 19 23 28 32 34 32 34 37 43 49 46 44 48 49 48 46 46 45 39 35 36 36 37 40 41 43 45 38 33 33 32 37 39 35 33 33 30 26 24 27 28 28 30 30 32 32 31 31 30 29 27 26 25 23 22 21 21 20 19 20 20 18 17 18 18 18 19 21 21 19 19 20 19 16 16 17 20 22 25 28 28 29 29 27 28 37 43 38 33 36 35 31
19 19 18 17 16 16 19 21 26 32 33 34 34 38 49 50 43 43 53 58 55 51 50 43 38 38 38 37 37 39 40 45 44 39 34 33 37 39 35 30 30 29 25 27 33 32 29 32 32 32 34 34 33 31 30 28 27 26 23 22 21 20 20 20 21 19 17 18 18 19 19 21 23 23 20 19 21 20 18 18 20 22 23 23 23 22 23 25 28 32 40 46 45 40 41 40 35
18 18 17 17 16 16 17 18 24 31 32 31 31 33 43 52 47 41 50 59 59 57 52 45 40 41 41 39 39 40 40 40 42 43 39 34 35 37 34 28 27 29 28 30 35 33 30 33 33 33 35 35 34 32 30 29 27 26 24 22 20 20 19 20 19 18 21 22 20 19 21 22 22 21 21 20 21 20 19 20 21 22 22 23 23 22 22 25 31 37 40 43 43 40 40 39 35
18 19 20 19 17 15 13 16 22 25 26 27 30 33 38 45 46 44 48 53 54 54 52 47 44 42 41 41 41 41 42 40 39 40 40 36 34 35 32 28 27 30 32 31 31 31 31 33 34 34 34 33 32 31 31 31 27 25 24 22 20 20 19 20 19 19 21 22 21 22 23 23 22 21 22 22 23 22 20 21 22 22 25 27 27 25 24 26 31 37 39 37 35 31 31 33 32
18 20 22 20 18 19 16 17 20 22 26 28 30 34 38 40 43 47 52 53 50 50 51 48 44 42 41 41 40 39 41 40 37 37 37 35 33 34 32 31 29 29 32 31 30 31 31 32 34 34 33 30 29 30 32 32 27 25 26 24 21 21 20 20 20 20 21 22 22 23 24 24 23 22 22 22 22 21 21 23 22 21 24 26 27 26 27 27 29 33 33 31 29 27 29 33 35
19 21 21 17 17 22 21 20 22 26 31 32 31 33 36 39 41 44 48 46 45 48 50 48 45 44 45 41 36 36 37 37 35 35 37 36 34 33 33 32 29 28 31 31 32 32 31 32 34 33 31 28 27 29 32 32 29 26 27 26 24 23 21 19 20 20 21 23 24 24 25 24 24 24 24 24 23 24 25 24 21 20 22 24 24 26 27 28 29 30 29 28 28 28 30 35 39
20 23 22 20 22 24 24 24 26 30 33 33 32 30 32 36 37 39 43 42 41 44 48 49 48 46 45 42 36 32 33 36 38 37 37 38 36 34 33 32 30 28 30 32 34 33 33 34 35 32 29 27 27 29 32 33 30 28 27 27 26 24 21 20 20 21 21 23 24 24 24 24 24 25 25 25 26 27 26 24 22 22 22 24 25 26 28 29 29 30 30 30 31 33 34 36 38
20 24 26 26 25 25 27 29 31 32 31 29 29 27 29 33 34 35 38 41 41 40 41 43 43 42 39 38 35 33 34 36 38 38 37 36 34 32 33 33 32 30 31 33 35 35 34 35 34 31 28 26 26 28 32 34 33 29 28 27 27 25 23 22 21 21 23 24 24 25 25 24 25 24 25 25 26 26 24 23 23 22 23 24 25 28 30 31 32 31 32 32 33 34 36 38 39
20 24 28 28 26 27 30 32 31 30 29 27 25 25 27 28 31 32 31 35 39 38 37 36 37 39 36 34 35 35 37 38 36 39 39 36 33 32 35 38 38 36 34 35 36 33 32 34 31 29 29 27 24 27 33 36 35 32 30 27 26 24 23 23 22 21 21 23 24 24 25 26 25 25 27 26 25 24 23 24 24 23 23 25 26 30 31 31 33 33 32 33 34 33 36 40 42
21 22 26 27 25 29 33 32 29 28 26 26 25 26 27 27 30 30 28 32 35 36 39 37 36 38 35 33 36 37 38 39 38 40 41 39 37 35 36 40 44 46 44 40 38 32 30 32 29 28 30 26 24 29 35 38 38 37 33 28 27 26 23 22 22 20 19 21 24 24 24 26 26 26 27 25 25 26 26 25 23 22 23 25 27 29 31 32 34 34 32 33 34 35 39 42 42
22 20 23 25 23 27 31 28 27 27 25 26 26 26 26 27 29 28 28 31 32 34 39 36 32 31 28 27 33 39 40 40 41 43 44 44 42 39 39 41 43 49 50 46 42 36 32 32 28 27 30 27 26 32 38 41 40 39 37 32 28 28 24 21 21 23 23 24 25 23 23 25 26 26 25 25 27 28 27 25 24 23 23 24 26 29 32 33 35 35 34 34 34 35 39 40 39
22 20 21 24 23 24 25 24 25 26 25 25 27 27 27 28 28 28 29 31 31 31 31 30 28 24 20 21 28 35 39 43 47 47 47 48 46 41 42 43 41 40 42 44 43 37 34 33 26 27 32 29 30 37 42 45 43 41 39 35 31 30 28 26 25 25 24 24 24 24 24 26 27 27 27 27 28 27 27 27 27 26 26 27 30 33 34 33 35 35 34 35 36 36 37 37 37
22 21 19 21 25 23 21 22 25 26 27 25 24 25 27 28 29 30 33 33 34 34 29 28 28 24 19 20 24 28 34 42 49 50 50 50 47 44 43 45 42 39 38 39 38 35 36 33 27 30 34 32 33 42 46 48 48 44 40 37 34 32 30 29 27 25 23 22 24 26 27 27 27 27 27 26 27 28 29 29 29 30 32 32 35 39 39 35 34 35 34 36 41 42 39 35 35
22 22 18 19 22 22 20 22 26 28 30 28 26 26 26 27 30 32 34 34 35 39 36 30 28 25 21 20 23 28 32 39 45 48 48 47 47 45 43 43 43 42 43 39 35 37 39 35 31 33 34 32 37 44 48 51 51 47 42 38 37 35 32 30 29 27 24 23 25 27 28 29 29 29 28 27 27 28 29 30 30 31 34 34 37 41 41 39 38 36 34 35 39 40 39 37 34
22 22 21 19 20 21 22 23 24 28 31 31 30 29 29 28 29 31 34 33 34 37 38 31 25 24 25 24 27 29 30 34 39 42 44 45 46 45 45 48 44 42 44 41 39 43 42 39 36 34 35 37 41 45 49 52 51 46 43 40 39 37 33 32 32 28 25 24 26 28 29 31 32 32 31 28 26 26 27 28 28 29 31 33 37 38 37 39 41 37 33 36 39 39 41 41 36
20 21 22 21 20 21 22 22 24 25 28 31 30 28 30 29 29 33 35 32 31 30 32 31 25 22 24 25 26 24 26 34 41 43 43 43 45 45 47 51 49 45 44 41 40 43 42 43 40 36 40 43 43 43 47 50 48 44 43 44 46 43 36 34 35 32 28 27 27 28 29 31 32 32 33 31 28 26 27 27 28 27 27 30 36 41 42 41 41 41 40 41 41 42 46 43 37
21 22 22 21 22 22 21 23 26 25 27 30 29 27 29 30 29 32 33 31 29 28 30 33 30 23 21 22 24 21 22 33 43 47 46 47 49 45 39 41 44 43 43 41 42 41 38 39 39 39 44 45 42 42 42 44 43 41 44 49 53 49 39 36 38 36 32 28 27 28 28 29 30 33 36 35 33 32 31 31 30 29 28 28 31 38 43 43 44 46 47 43 40 44 49 44 38